Regional Weather Roundup
Issued by NWS Sioux Falls, SD

Home | Current Version | Previous Version | Text Only | Print | Product List | Glossary Off
Versions: 1 2 3 4 5 6 7 8 9 10 11 12 13 14 15 16 17 18 19 20 21 22 23 24 25 26 27 28 29 30 31 32 33 34 35 36 37 38 39 40 41 42 43 44 45 46 47 48 49 50

000
ASUS43 KFSD 250602
RWRFSD

WEATHER ROUNDUP FOR SE SOUTH DAKOTA/SW MINNESOTA/NW IOWA
NATIONAL WEATHER SERVICE SIOUX FALLS SD
1200 AM CST SUN JAN 25 2015

NOTE: "FAIR" INDICATES FEW OR NO CLOUDS BELOW 12,000 FEET WITH NO
SIGNIFICANT WEATHER AND OR OBSTRUCTIONS TO VISIBILITY.


SDZ038>040-050-052>070-250700-
SOUTHEAST SOUTH DAKOTA

CITY           SKY/WX    TMP DP  RH WIND       PRES   REMARKS
CHAMBERLAIN    NOT AVBL
HURON          LGT SNOW  32  31  96 N21G28    29.77R FOG     WCI  20
6HR MIN TEMP:  32; 6HR MAX TEMP:  40; 6HR PCP:  0.03;

MADISON        LGT SNOW  32  32 100 N16G26    29.68R WCI  21
MITCHELL       LGT SNOW  33  32  96 N23       29.76R FOG     WCI  21
6HR MIN TEMP:  33; 6HR MAX TEMP:  46; 6HR PCP:  0.04;

SIOUX FALLS    LGT SNOW  33  32  96 N13       29.66R FOG     WCI  24
6HR MIN TEMP:  33; 6HR MAX TEMP:  39; 6HR PCP:  0.08;

WINNER         CLOUDY    39  35  86 NW30G37   29.83R
YANKTON        CLOUDY   N/A N/A N/A NW28G33   29.67R
$$

MNZ071-072-080-081-089-090-097-098-250700-
SOUTHWEST MINNESOTA

CITY           SKY/WX    TMP DP  RH WIND       PRES   REMARKS
FAIRMONT       CLOUDY    34  27  75 N7        29.59S WCI  28
JACKSON        MIX PCPN  34  32  93 VRB8      29.61R WCI  27
LUVERNE        LGT SNOW  34  32  93 N13       29.64R WCI  25
MARSHALL       CLOUDY    32  28  86 N14       29.69R WCI  22
6HR MIN TEMP:  32; 6HR MAX TEMP:  36; 6HR PCP:  0.03;

MONTEVIDEO     LGT SNOW  32  32 100 NE12      29.71R WCI  23
PIPESTONE      LGT SNOW  32  30  93 N12G18    29.64R WCI  23
REDWOOD FALLS  CLOUDY    35  32  88 VRB7      29.66R WCI  29
TRACY          LGT SNOW  33  32  97 N14       29.65R WCI  23
WINDOM         MIX PCPN  34  34 100 N10       29.62R WCI  26
WORTHINGTON    CLOUDY    32  28  86 N15       29.62R WCI  22
$$

IAZ001>003-012>014-020>022-031-032-NEZ013-014-SDZ071-250700-
NORTHWEST IOWA

CITY           SKY/WX    TMP DP  RH WIND       PRES   REMARKS
ESTHERVILLE    LGT SNOW  32  32 100 N8        29.59R FOG     WCI  25
SIOUX CITY     CLOUDY    41  37  86 NW14G29   29.59S
6HR MIN TEMP:  41; 6HR MAX TEMP:  47; 6HR PCP:  0.03;

SPENCER        LGT SNOW  34  32  92 N9        29.59R FOG     WCI  27
6HR MIN TEMP:  34; 6HR MAX TEMP:  38; 6HR PCP:  0.05;

$$

ABBREVIATIONS USED IN REMARKS
   TC - TEMPERATURE IN CELSIUS
  WCI - WIND CHILL INDEX
   HX - HEAT INDEX
  VSB - VISIBILITY



USA.gov is the U.S. government's official web portal to all federal, state and local government web resources and services.